owner,sensor,date,latitude,longitude,air_pressure(mBar),qcFlag 
TABS,ioos:station:wmo:42047:1,2009-11-01T00:00:00Z,27.8966,-93.5973,1019.52,11111222 
TABS,ioos:station:wmo:42047:1,2009-11-01T00:30:00Z,27.8966,-93.5973,1019.95,11111222 
TABS,ioos:station:wmo:42047:1,2009-11-01T01:00:00Z,27.8966,-93.5973,1020.15,11111222 
TABS,ioos:station:wmo:42047:1,2009-11-01T01:30:00Z,27.8966,-93.5973,1020.36,11111222 
TABS,ioos:station:wmo:42047:1,2009-11-01T02:00:00Z,27.8966,-93.5973,1020.51,11111222 
TABS,ioos:station:wmo:42047:1,2009-11-01T02:30:00Z,27.8966,-93.5973,1020.6,11111222 
TABS,ioos:station:wmo:42047:1,2009-11-01T03:00:00Z,27.8966,-93.5973,1020.74,11111222 
TABS,ioos:station:wmo:42047:1,2009-11-01T03:30:00Z,27.8966,-93.5973,1020.76,11111222 
TABS,ioos:station:wmo:42047:1,2009-11-01T04:00:00Z,27.8966,-93.5973,1020.85,11111222 
TABS,ioos:station:wmo:42047:1,2009-11-01T04:30:00Z,27.8966,-93.5973,1020.52,11111222 
TABS,ioos:station:wmo:42047:1,2009-11-01T05:00:00Z,27.8966,-93.5973,1020.54,11111222 
TABS,ioos:station:wmo:42047:1,2009-11-01T05:30:00Z,27.8966,-93.5973,1020.56,11111222 
TABS,ioos:station:wmo:42047:1,2009-11-01T06:00:00Z,27.8966,-93.5973,1020.25,11111222 
TABS,ioos:station:wmo:42047:1,2009-11-01T06:30:00Z,27.8966,-93.5973,1020.17,11111222 
TABS,ioos:station:wmo:42047:1,2009-11-01T07:00:00Z,27.8966,-93.5973,1020.13,11111222 
TABS,ioos:station:wmo:42047:1,2009-11-01T07:30:00Z,27.8966,-93.5973,1020.16,11111222 
TABS,ioos:station:wmo:42047:1,2009-11-01T08:00:00Z,27.8966,-93.5973,1019.99,11111222 
TABS,ioos:station:wmo:42047:1,2009-11-01T08:30:00Z,27.8966,-93.5973,1020.06,11111222 
TABS,ioos:station:wmo:42047:1,2009-11-01T09:00:00Z,27.8966,-93.5973,1019.97,11111222 
TABS,ioos:station:wmo:42047:1,2009-11-01T09:30:00Z,27.8966,-93.5973,1019.88,11111222 
TABS,ioos:station:wmo:42047:1,2009-11-01T10:00:00Z,27.8966,-93.5973,1020.01,11111222 
TABS,ioos:station:wmo:42047:1,2009-11-01T10:30:00Z,27.8966,-93.5973,1020.12,11111222 
TABS,ioos:station:wmo:42047:1,2009-11-01T11:00:00Z,27.8966,-93.5973,1020.24,11111222 
TABS,ioos:station:wmo:42047:1,2009-11-01T11:30:00Z,27.8966,-93.5973,1020.37,11111222 
TABS,ioos:station:wmo:42047:1,2009-11-01T12:00:00Z,27.8966,-93.5973,1020.72,11111222 
TABS,ioos:station:wmo:42047:1,2009-11-01T12:30:00Z,27.8966,-93.5973,1020.85,11111222 
TABS,ioos:station:wmo:42047:1,2009-11-01T13:00:00Z,27.8966,-93.5973,1021.11,11111222 
TABS,ioos:station:wmo:42047:1,2009-11-01T13:30:00Z,27.8966,-93.5973,1021.07,11111222 
TABS,ioos:station:wmo:42047:1,2009-11-01T14:00:00Z,27.8966,-93.5973,1021.54,11111222 
TABS,ioos:station:wmo:42047:1,2009-11-01T14:30:00Z,27.8966,-93.5973,1021.69,11111222 
TABS,ioos:station:wmo:42047:1,2009-11-01T15:00:00Z,27.8966,-93.5973,1021.85,11111222 
TABS,ioos:station:wmo:42047:1,2009-11-01T15:30:00Z,27.8966,-93.5973,1022.04,11111222 
TABS,ioos:station:wmo:42047:1,2009-11-01T16:00:00Z,27.8966,-93.5973,1022.11,11111222 
TABS,ioos:station:wmo:42047:1,2009-11-01T16:30:00Z,27.8966,-93.5973,1021.95,11111222 
TABS,ioos:station:wmo:42047:1,2009-11-01T17:00:00Z,27.8966,-93.5973,1021.88,11111222 
TABS,ioos:station:wmo:42047:1,2009-11-01T17:30:00Z,27.8966,-93.5973,1021.46,11111222 
TABS,ioos:station:wmo:42047:1,2009-11-01T18:00:00Z,27.8966,-93.5973,1021.08,11111222 
TABS,ioos:station:wmo:42047:1,2009-11-01T18:30:00Z,27.8966,-93.5973,1020.65,11111222 
TABS,ioos:station:wmo:42047:1,2009-11-01T19:00:00Z,27.8966,-93.5973,1020.16,11111222 
TABS,ioos:station:wmo:42047:1,2009-11-01T19:30:00Z,27.8966,-93.5973,1019.81,11111222 
TABS,ioos:station:wmo:42047:1,2009-11-01T20:00:00Z,27.8966,-93.5973,1019.53,11111222 
TABS,ioos:station:wmo:42047:1,2009-11-01T20:30:00Z,27.8966,-93.5973,1019.57,11111222 
TABS,ioos:station:wmo:42047:1,2009-11-01T21:00:00Z,27.8966,-93.5973,1019.5,11111222 
TABS,ioos:station:wmo:42047:1,2009-11-01T21:30:00Z,27.8966,-93.5973,1019.52,11111222 
TABS,ioos:station:wmo:42047:1,2009-11-01T22:00:00Z,27.8966,-93.5973,1019.44,11111222 
TABS,ioos:station:wmo:42047:1,2009-11-01T22:30:00Z,27.8966,-93.5973,1019.41,11111222 
TABS,ioos:station:wmo:42047:1,2009-11-01T23:00:00Z,27.8966,-93.5973,1019.53,11111222 
TABS,ioos:station:wmo:42047:1,2009-11-01T23:30:00Z,27.8966,-93.5973,1019.92,11111222 
TABS,ioos:station:wmo:42047:1,2009-11-02T00:00:00Z,27.8966,-93.5973,1020.03,11111222 
TABS,ioos:station:wmo:42047:1,2009-11-02T00:30:00Z,27.8966,-93.5973,1020.1,11111222 
TABS,ioos:station:wmo:42047:1,2009-11-02T01:00:00Z,27.8966,-93.5973,1020.46,11111222 
TABS,ioos:station:wmo:42047:1,2009-11-02T01:30:00Z,27.8966,-93.5973,1020.63,11111222 
TABS,ioos:station:wmo:42047:1,2009-11-02T02:00:00Z,27.8966,-93.5973,1020.72,11111222 
TABS,ioos:station:wmo:42047:1,2009-11-02T02:30:00Z,27.8966,-93.5973,1020.71,11111222 
TABS,ioos:station:wmo:42047:1,2009-11-02T03:00:00Z,27.8966,-93.5973,1020.64,11111222 
TABS,ioos:station:wmo:42047:1,2009-11-02T03:30:00Z,27.8966,-93.5973,1020.7,11111222 
TABS,ioos:station:wmo:42047:1,2009-11-02T04:00:00Z,27.8966,-93.5973,1020.68,11111222 
TABS,ioos:station:wmo:42047:1,2009-11-02T04:30:00Z,27.8966,-93.5973,1020.56,11111222 
TABS,ioos:station:wmo:42047:1,2009-11-02T05:00:00Z,27.8966,-93.5973,1020.47,11111222 
TABS,ioos:station:wmo:42047:1,2009-11-02T05:30:00Z,27.8966,-93.5973,1020.18,11111222 
TABS,ioos:station:wmo:42047:1,2009-11-02T06:00:00Z,27.8966,-93.5973,1020.08,11111222 
TABS,ioos:station:wmo:42047:1,2009-11-02T06:30:00Z,27.8966,-93.5973,1019.85,11111222 
TABS,ioos:station:wmo:42047:1,2009-11-02T07:00:00Z,27.8966,-93.5973,1019.89,11111222 
TABS,ioos:station:wmo:42047:1,2009-11-02T07:30:00Z,27.8966,-93.5973,1019.66,11111222 
TABS,ioos:station:wmo:42047:1,2009-11-02T08:00:00Z,27.8966,-93.5973,1019.61,11111222 
TABS,ioos:station:wmo:42047:1,2009-11-02T08:30:00Z,27.8966,-93.5973,1019.5,11111222 
TABS,ioos:station:wmo:42047:1,2009-11-02T09:00:00Z,27.8966,-93.5973,1019.45,11111222 
TABS,ioos:station:wmo:42047:1,2009-11-02T09:30:00Z,27.8966,-93.5973,1019.36,11111222 
TABS,ioos:station:wmo:42047:1,2009-11-02T10:00:00Z,27.8966,-93.5973,1019.46,11111222 
TABS,ioos:station:wmo:42047:1,2009-11-02T10:30:00Z,27.8966,-93.5973,1019.66,11111222 
TABS,ioos:station:wmo:42047:1,2009-11-02T11:00:00Z,27.8966,-93.5973,1019.8,11111222 
TABS,ioos:station:wmo:42047:1,2009-11-02T11:30:00Z,27.8966,-93.5973,1019.86,11111222 
TABS,ioos:station:wmo:42047:1,2009-11-02T12:00:00Z,27.8966,-93.5973,1020.25,11111222 
TABS,ioos:station:wmo:42047:1,2009-11-02T12:30:00Z,27.8966,-93.5973,1020.29,11111222 
TABS,ioos:station:wmo:42047:1,2009-11-02T13:00:00Z,27.8966,-93.5973,1020.34,11111222 
TABS,ioos:station:wmo:42047:1,2009-11-02T13:30:00Z,27.8966,-93.5973,1020.84,11111222 
TABS,ioos:station:wmo:42047:1,2009-11-02T14:00:00Z,27.8966,-93.5973,1021.23,11111222 
TABS,ioos:station:wmo:42047:1,2009-11-02T14:30:00Z,27.8966,-93.5973,1021.67,11111222 
TABS,ioos:station:wmo:42047:1,2009-11-02T15:00:00Z,27.8966,-93.5973,1021.89,11111222 
TABS,ioos:station:wmo:42047:1,2009-11-02T15:30:00Z,27.8966,-93.5973,1021.82,11111222 
TABS,ioos:station:wmo:42047:1,2009-11-02T16:00:00Z,27.8966,-93.5973,1021.83,11111222 
TABS,ioos:station:wmo:42047:1,2009-11-02T16:30:00Z,27.8966,-93.5973,1021.81,11111222 
TABS,ioos:station:wmo:42047:1,2009-11-02T17:00:00Z,27.8966,-93.5973,1021.59,11111222 
TABS,ioos:station:wmo:42047:1,2009-11-02T17:30:00Z,27.8966,-93.5973,1021.26,11111222 
TABS,ioos:station:wmo:42047:1,2009-11-02T18:00:00Z,27.8966,-93.5973,1021.15,11111222 
TABS,ioos:station:wmo:42047:1,2009-11-02T18:30:00Z,27.8966,-93.5973,1020.73,11111222 
TABS,ioos:station:wmo:42047:1,2009-11-02T19:00:00Z,27.8966,-93.5973,1020.36,11111222 
TABS,ioos:station:wmo:42047:1,2009-11-02T19:30:00Z,27.8966,-93.5973,1020.22,11111222 
TABS,ioos:station:wmo:42047:1,2009-11-02T20:00:00Z,27.8966,-93.5973,1019.95,11111222 
TABS,ioos:station:wmo:42047:1,2009-11-02T20:30:00Z,27.8966,-93.5973,1019.92,11111222 
TABS,ioos:station:wmo:42047:1,2009-11-02T21:00:00Z,27.8966,-93.5973,1019.82,11111222 
TABS,ioos:station:wmo:42047:1,2009-11-02T21:30:00Z,27.8966,-93.5973,1019.89,11111222 
TABS,ioos:station:wmo:42047:1,2009-11-02T22:00:00Z,27.8966,-93.5973,1019.75,11111222 
TABS,ioos:station:wmo:42047:1,2009-11-02T22:30:00Z,27.8966,-93.5973,1020.12,11111222 
TABS,ioos:station:wmo:42047:1,2009-11-02T23:00:00Z,27.8966,-93.5973,1020.18,11111222 
TABS,ioos:station:wmo:42047:1,2009-11-02T23:30:00Z,27.8966,-93.5973,1020.39,11111222 
TABS,ioos:station:wmo:42047:1,2009-11-03T00:00:00Z,27.8966,-93.5973,1020.61,11111222 
TABS,ioos:station:wmo:42047:1,2009-11-03T00:30:00Z,27.8966,-93.5973,1020.91,11111222 
TABS,ioos:station:wmo:42047:1,2009-11-03T01:00:00Z,27.8966,-93.5973,1021.02,11111222 
TABS,ioos:station:wmo:42047:1,2009-11-03T01:30:00Z,27.8966,-93.5973,1021.17,11111222 
TABS,ioos:station:wmo:42047:1,2009-11-03T02:00:00Z,27.8966,-93.5973,1021.24,11111222 
TABS,ioos:station:wmo:42047:1,2009-11-03T02:30:00Z,27.8966,-93.5973,1021.3,11111222 
TABS,ioos:station:wmo:42047:1,2009-11-03T03:00:00Z,27.8966,-93.5973,1021.38,11111222 
TABS,ioos:station:wmo:42047:1,2009-11-03T03:30:00Z,27.8966,-93.5973,1021.43,11111222 
TABS,ioos:station:wmo:42047:1,2009-11-03T04:00:00Z,27.8966,-93.5973,1021.59,11111222 
TABS,ioos:station:wmo:42047:1,2009-11-03T04:30:00Z,27.8966,-93.5973,1021.55,11111222 
TABS,ioos:station:wmo:42047:1,2009-11-03T05:00:00Z,27.8966,-93.5973,1021.62,11111222 
TABS,ioos:station:wmo:42047:1,2009-11-03T05:30:00Z,27.8966,-93.5973,1021.42,11111222 
TABS,ioos:station:wmo:42047:1,2009-11-03T06:00:00Z,27.8966,-93.5973,1021.23,11111222 
TABS,ioos:station:wmo:42047:1,2009-11-03T06:30:00Z,27.8966,-93.5973,1021.48,11111222 
TABS,ioos:station:wmo:42047:1,2009-11-03T07:00:00Z,27.8966,-93.5973,1021.38,11111222 
TABS,ioos:station:wmo:42047:1,2009-11-03T07:30:00Z,27.8966,-93.5973,1021.34,11111222 
TABS,ioos:station:wmo:42047:1,2009-11-03T08:00:00Z,27.8966,-93.5973,1020.96,11111222 
TABS,ioos:station:wmo:42047:1,2009-11-03T08:30:00Z,27.8966,-93.5973,1020.85,11111222 
TABS,ioos:station:wmo:42047:1,2009-11-03T09:00:00Z,27.8966,-93.5973,1020.87,11111222 
TABS,ioos:station:wmo:42047:1,2009-11-03T09:30:00Z,27.8966,-93.5973,1021.05,11111222 
TABS,ioos:station:wmo:42047:1,2009-11-03T10:00:00Z,27.8966,-93.5973,1021.16,11111222 
TABS,ioos:station:wmo:42047:1,2009-11-03T10:30:00Z,27.8966,-93.5973,1021.1,11111222 
TABS,ioos:station:wmo:42047:1,2009-11-03T11:00:00Z,27.8966,-93.5973,1021.36,11111222 
TABS,ioos:station:wmo:42047:1,2009-11-03T11:30:00Z,27.8966,-93.5973,1021.54,11111222 
TABS,ioos:station:wmo:42047:1,2009-11-03T12:00:00Z,27.8966,-93.5973,1021.75,11111222 
TABS,ioos:station:wmo:42047:1,2009-11-03T12:30:00Z,27.8966,-93.5973,1022.09,11111222 
TABS,ioos:station:wmo:42047:1,2009-11-03T13:00:00Z,27.8966,-93.5973,1022.39,11111222 
TABS,ioos:station:wmo:42047:1,2009-11-03T13:30:00Z,27.8966,-93.5973,1022.74,11111222 
TABS,ioos:station:wmo:42047:1,2009-11-03T14:00:00Z,27.8966,-93.5973,1023.12,11111222 
TABS,ioos:station:wmo:42047:1,2009-11-03T14:30:00Z,27.8966,-93.5973,1023.31,11111222 
TABS,ioos:station:wmo:42047:1,2009-11-03T15:00:00Z,27.8966,-93.5973,1023.39,11111222 
TABS,ioos:station:wmo:42047:1,2009-11-03T15:30:00Z,27.8966,-93.5973,1023.59,11111222 
TABS,ioos:station:wmo:42047:1,2009-11-03T16:00:00Z,27.8966,-93.5973,1023.63,11111222 
TABS,ioos:station:wmo:42047:1,2009-11-03T16:30:00Z,27.8966,-93.5973,1023.47,11111222 
TABS,ioos:station:wmo:42047:1,2009-11-03T17:00:00Z,27.8966,-93.5973,1023.15,11111222 
TABS,ioos:station:wmo:42047:1,2009-11-03T17:30:00Z,27.8966,-93.5973,1022.55,11111222 
TABS,ioos:station:wmo:42047:1,2009-11-03T18:00:00Z,27.8966,-93.5973,1022.35,11111222 
TABS,ioos:station:wmo:42047:1,2009-11-03T18:30:00Z,27.8966,-93.5973,1021.92,11111222 
TABS,ioos:station:wmo:42047:1,2009-11-03T19:00:00Z,27.8966,-93.5973,1021.55,11111222 
TABS,ioos:station:wmo:42047:1,2009-11-03T19:30:00Z,27.8966,-93.5973,1021.36,11111222 
TABS,ioos:station:wmo:42047:1,2009-11-03T20:00:00Z,27.8966,-93.5973,1021.11,11111222 
TABS,ioos:station:wmo:42047:1,2009-11-03T20:30:00Z,27.8966,-93.5973,1021.05,11111222 
TABS,ioos:station:wmo:42047:1,2009-11-03T21:00:00Z,27.8966,-93.5973,1021.22,11111222 
TABS,ioos:station:wmo:42047:1,2009-11-03T21:30:00Z,27.8966,-93.5973,1021.02,11111222 
TABS,ioos:station:wmo:42047:1,2009-11-03T22:00:00Z,27.8966,-93.5973,1021.06,11111222 
TABS,ioos:station:wmo:42047:1,2009-11-03T22:30:00Z,27.8966,-93.5973,1021.04,11111222 
TABS,ioos:station:wmo:42047:1,2009-11-03T23:00:00Z,27.8966,-93.5973,1021.62,11111222 
TABS,ioos:station:wmo:42047:1,2009-11-03T23:30:00Z,27.8966,-93.5973,1021.79,11111222 
TABS,ioos:station:wmo:42047:1,2009-11-04T00:00:00Z,27.8966,-93.5973,1021.95,11111222 
TABS,ioos:station:wmo:42047:1,2009-11-04T00:30:00Z,27.8966,-93.5973,1022.27,11111222 
TABS,ioos:station:wmo:42047:1,2009-11-04T01:00:00Z,27.8966,-93.5973,1022.57,11111222 
TABS,ioos:station:wmo:42047:1,2009-11-04T01:30:00Z,27.8966,-93.5973,1022.58,11111222 
TABS,ioos:station:wmo:42047:1,2009-11-04T02:00:00Z,27.8966,-93.5973,1022.96,11111222 
TABS,ioos:station:wmo:42047:1,2009-11-04T02:30:00Z,27.8966,-93.5973,1023.19,11111222 
TABS,ioos:station:wmo:42047:1,2009-11-04T03:00:00Z,27.8966,-93.5973,1023.05,11111222 
TABS,ioos:station:wmo:42047:1,2009-11-04T03:30:00Z,27.8966,-93.5973,1023.35,11111222 
TABS,ioos:station:wmo:42047:1,2009-11-04T04:00:00Z,27.8966,-93.5973,1023.37,11111222 
TABS,ioos:station:wmo:42047:1,2009-11-04T04:30:00Z,27.8966,-93.5973,1023.28,11111222 
TABS,ioos:station:wmo:42047:1,2009-11-04T05:00:00Z,27.8966,-93.5973,1023.12,11111222 
TABS,ioos:station:wmo:42047:1,2009-11-04T05:30:00Z,27.8966,-93.5973,1023.28,11111222 
TABS,ioos:station:wmo:42047:1,2009-11-04T06:00:00Z,27.8966,-93.5973,1022.88,11111222 
TABS,ioos:station:wmo:42047:1,2009-11-04T06:30:00Z,27.8966,-93.5973,1022.8,11111222 
TABS,ioos:station:wmo:42047:1,2009-11-04T07:00:00Z,27.8966,-93.5973,1022.58,11111222 
TABS,ioos:station:wmo:42047:1,2009-11-04T07:30:00Z,27.8966,-93.5973,1022.54,11111222 
TABS,ioos:station:wmo:42047:1,2009-11-04T08:00:00Z,27.8966,-93.5973,1022.59,11111222 
TABS,ioos:station:wmo:42047:1,2009-11-04T08:30:00Z,27.8966,-93.5973,1022.42,11111222 
TABS,ioos:station:wmo:42047:1,2009-11-04T09:00:00Z,27.8966,-93.5973,1022.32,11111222 
TABS,ioos:station:wmo:42047:1,2009-11-04T09:30:00Z,27.8966,-93.5973,1022.94,11111222 
TABS,ioos:station:wmo:42047:1,2009-11-04T10:00:00Z,27.8966,-93.5973,1022.86,11111222 
TABS,ioos:station:wmo:42047:1,2009-11-04T10:30:00Z,27.8966,-93.5973,1023.04,11111222 
TABS,ioos:station:wmo:42047:1,2009-11-04T11:00:00Z,27.8966,-93.5973,1023.41,11111222 
TABS,ioos:station:wmo:42047:1,2009-11-04T11:30:00Z,27.8966,-93.5973,1023.58,11111222 
TABS,ioos:station:wmo:42047:1,2009-11-04T12:00:00Z,27.8966,-93.5973,1023.9,11111222 
TABS,ioos:station:wmo:42047:1,2009-11-04T12:30:00Z,27.8966,-93.5973,1023.85,11111222 
TABS,ioos:station:wmo:42047:1,2009-11-04T13:00:00Z,27.8966,-93.5973,1024.0,11111222 
TABS,ioos:station:wmo:42047:1,2009-11-04T13:30:00Z,27.8966,-93.5973,1024.32,11111222 
TABS,ioos:station:wmo:42047:1,2009-11-04T14:00:00Z,27.8966,-93.5973,1024.6,11111222 
TABS,ioos:station:wmo:42047:1,2009-11-04T14:30:00Z,27.8966,-93.5973,1024.78,11111222 
TABS,ioos:station:wmo:42047:1,2009-11-04T15:00:00Z,27.8966,-93.5973,1024.97,11111222 
TABS,ioos:station:wmo:42047:1,2009-11-04T15:30:00Z,27.8966,-93.5973,1025.43,11111222 
TABS,ioos:station:wmo:42047:1,2009-11-04T16:00:00Z,27.8966,-93.5973,1025.39,11111222 
TABS,ioos:station:wmo:42047:1,2009-11-04T16:30:00Z,27.8966,-93.5973,1025.2,11111222 
TABS,ioos:station:wmo:42047:1,2009-11-04T17:00:00Z,27.8966,-93.5973,1025.29,11111222 
TABS,ioos:station:wmo:42047:1,2009-11-04T17:30:00Z,27.8966,-93.5973,1024.85,11111222 
TABS,ioos:station:wmo:42047:1,2009-11-04T18:00:00Z,27.8966,-93.5973,1024.28,11111222 
TABS,ioos:station:wmo:42047:1,2009-11-04T18:30:00Z,27.8966,-93.5973,1024.13,11111222 
TABS,ioos:station:wmo:42047:1,2009-11-04T19:00:00Z,27.8966,-93.5973,1023.54,11111222 
TABS,ioos:station:wmo:42047:1,2009-11-04T19:30:00Z,27.8966,-93.5973,1023.5,11111222 
TABS,ioos:station:wmo:42047:1,2009-11-04T20:00:00Z,27.8966,-93.5973,1023.35,11111222 
TABS,ioos:station:wmo:42047:1,2009-11-04T20:30:00Z,27.8966,-93.5973,1023.11,11111222 
TABS,ioos:station:wmo:42047:1,2009-11-04T21:00:00Z,27.8966,-93.5973,1023.02,11111222 
TABS,ioos:station:wmo:42047:1,2009-11-04T21:30:00Z,27.8966,-93.5973,1022.87,11111222 
TABS,ioos:station:wmo:42047:1,2009-11-04T22:00:00Z,27.8966,-93.5973,1023.12,11111222 
TABS,ioos:station:wmo:42047:1,2009-11-04T22:30:00Z,27.8966,-93.5973,1023.52,11111222 
TABS,ioos:station:wmo:42047:1,2009-11-04T23:00:00Z,27.8966,-93.5973,1023.61,11111222 
TABS,ioos:station:wmo:42047:1,2009-11-04T23:30:00Z,27.8966,-93.5973,1023.9,11111222 
TABS,ioos:station:wmo:42047:1,2009-11-05T00:00:00Z,27.8966,-93.5973,1024.09,11111222 
TABS,ioos:station:wmo:42047:1,2009-11-05T00:30:00Z,27.8966,-93.5973,1024.12,11111222 
TABS,ioos:station:wmo:42047:1,2009-11-05T01:00:00Z,27.8966,-93.5973,1024.41,11111222 
TABS,ioos:station:wmo:42047:1,2009-11-05T01:30:00Z,27.8966,-93.5973,1024.79,11111222 
TABS,ioos:station:wmo:42047:1,2009-11-05T02:00:00Z,27.8966,-93.5973,1024.97,11111222 
TABS,ioos:station:wmo:42047:1,2009-11-05T02:30:00Z,27.8966,-93.5973,1025.3,11111222 
TABS,ioos:station:wmo:42047:1,2009-11-05T03:00:00Z,27.8966,-93.5973,1025.63,11111222 
TABS,ioos:station:wmo:42047:1,2009-11-05T03:30:00Z,27.8966,-93.5973,1025.84,11111222 
TABS,ioos:station:wmo:42047:1,2009-11-05T04:00:00Z,27.8966,-93.5973,1025.65,11111222 
TABS,ioos:station:wmo:42047:1,2009-11-05T04:30:00Z,27.8966,-93.5973,1025.86,11111222 
TABS,ioos:station:wmo:42047:1,2009-11-05T05:00:00Z,27.8966,-93.5973,1025.57,11111222 
TABS,ioos:station:wmo:42047:1,2009-11-05T05:30:00Z,27.8966,-93.5973,1025.57,11111222 
TABS,ioos:station:wmo:42047:1,2009-11-05T06:00:00Z,27.8966,-93.5973,1025.57,11111222 
TABS,ioos:station:wmo:42047:1,2009-11-05T06:30:00Z,27.8966,-93.5973,1025.75,11111222 
TABS,ioos:station:wmo:42047:1,2009-11-05T07:00:00Z,27.8966,-93.5973,1025.46,11111222 
TABS,ioos:station:wmo:42047:1,2009-11-05T07:30:00Z,27.8966,-93.5973,1025.44,11111222 
TABS,ioos:station:wmo:42047:1,2009-11-05T08:00:00Z,27.8966,-93.5973,1025.13,11111222 
TABS,ioos:station:wmo:42047:1,2009-11-05T08:30:00Z,27.8966,-93.5973,1025.06,11111222 
TABS,ioos:station:wmo:42047:1,2009-11-05T09:00:00Z,27.8966,-93.5973,1025.29,11111222 
TABS,ioos:station:wmo:42047:1,2009-11-05T09:30:00Z,27.8966,-93.5973,1025.32,11111222 
TABS,ioos:station:wmo:42047:1,2009-11-05T10:00:00Z,27.8966,-93.5973,1025.18,11111222 
TABS,ioos:station:wmo:42047:1,2009-11-05T10:30:00Z,27.8966,-93.5973,1025.33,11111222 
TABS,ioos:station:wmo:42047:1,2009-11-05T11:00:00Z,27.8966,-93.5973,1025.22,11111222 
TABS,ioos:station:wmo:42047:1,2009-11-05T11:30:00Z,27.8966,-93.5973,1025.29,11111222 
TABS,ioos:station:wmo:42047:1,2009-11-05T12:00:00Z,27.8966,-93.5973,1025.39,11111222 
TABS,ioos:station:wmo:42047:1,2009-11-05T12:30:00Z,27.8966,-93.5973,1025.76,11111222 
TABS,ioos:station:wmo:42047:1,2009-11-05T13:00:00Z,27.8966,-93.5973,1025.93,11111222 
TABS,ioos:station:wmo:42047:1,2009-11-05T13:30:00Z,27.8966,-93.5973,1026.09,11111222 
TABS,ioos:station:wmo:42047:1,2009-11-05T14:00:00Z,27.8966,-93.5973,1026.56,11111222 
TABS,ioos:station:wmo:42047:1,2009-11-05T14:30:00Z,27.8966,-93.5973,1026.58,11111222 
TABS,ioos:station:wmo:42047:1,2009-11-05T15:00:00Z,27.8966,-93.5973,1026.5,11111222 
TABS,ioos:station:wmo:42047:1,2009-11-05T15:30:00Z,27.8966,-93.5973,1026.83,11111222 
TABS,ioos:station:wmo:42047:1,2009-11-05T16:00:00Z,27.8966,-93.5973,1026.58,11111222 
TABS,ioos:station:wmo:42047:1,2009-11-05T16:30:00Z,27.8966,-93.5973,1026.67,11111222 
TABS,ioos:station:wmo:42047:1,2009-11-05T17:00:00Z,27.8966,-93.5973,1026.44,11111222 
TABS,ioos:station:wmo:42047:1,2009-11-05T17:30:00Z,27.8966,-93.5973,1026.16,11111222 
TABS,ioos:station:wmo:42047:1,2009-11-05T18:00:00Z,27.8966,-93.5973,1025.69,11111222 
TABS,ioos:station:wmo:42047:1,2009-11-05T18:30:00Z,27.8966,-93.5973,1025.25,11111222 
TABS,ioos:station:wmo:42047:1,2009-11-05T19:00:00Z,27.8966,-93.5973,1025.1,11111222 
TABS,ioos:station:wmo:42047:1,2009-11-05T19:30:00Z,27.8966,-93.5973,1024.62,11111222 
TABS,ioos:station:wmo:42047:1,2009-11-05T20:00:00Z,27.8966,-93.5973,1024.51,11111222 
TABS,ioos:station:wmo:42047:1,2009-11-05T20:30:00Z,27.8966,-93.5973,1024.51,11111222 
TABS,ioos:station:wmo:42047:1,2009-11-05T21:00:00Z,27.8966,-93.5973,1024.26,11111222 
TABS,ioos:station:wmo:42047:1,2009-11-05T21:30:00Z,27.8966,-93.5973,1023.94,11111222 
TABS,ioos:station:wmo:42047:1,2009-11-05T22:00:00Z,27.8966,-93.5973,1023.99,11111222 
TABS,ioos:station:wmo:42047:1,2009-11-05T22:30:00Z,27.8966,-93.5973,1024.22,11111222 
TABS,ioos:station:wmo:42047:1,2009-11-05T23:00:00Z,27.8966,-93.5973,1024.08,11111222 
TABS,ioos:station:wmo:42047:1,2009-11-05T23:30:00Z,27.8966,-93.5973,1024.06,11111222 
TABS,ioos:station:wmo:42047:1,2009-11-06T00:00:00Z,27.8966,-93.5973,1024.16,11111222 
TABS,ioos:station:wmo:42047:1,2009-11-06T00:30:00Z,27.8966,-93.5973,1024.32,11111222 
TABS,ioos:station:wmo:42047:1,2009-11-06T01:00:00Z,27.8966,-93.5973,1024.62,11111222 
TABS,ioos:station:wmo:42047:1,2009-11-06T01:30:00Z,27.8966,-93.5973,1024.81,11111222 
TABS,ioos:station:wmo:42047:1,2009-11-06T02:00:00Z,27.8966,-93.5973,1024.92,11111222 
TABS,ioos:station:wmo:42047:1,2009-11-06T02:30:00Z,27.8966,-93.5973,1024.78,11111222 
TABS,ioos:station:wmo:42047:1,2009-11-06T03:00:00Z,27.8966,-93.5973,1024.9,11111222 
TABS,ioos:station:wmo:42047:1,2009-11-06T03:30:00Z,27.8966,-93.5973,1024.74,11111222 
TABS,ioos:station:wmo:42047:1,2009-11-06T04:00:00Z,27.8966,-93.5973,1024.53,11111222 
TABS,ioos:station:wmo:42047:1,2009-11-06T04:30:00Z,27.8966,-93.5973,1024.7,11111222 
TABS,ioos:station:wmo:42047:1,2009-11-06T05:00:00Z,27.8966,-93.5973,1024.33,11111222 
TABS,ioos:station:wmo:42047:1,2009-11-06T05:30:00Z,27.8966,-93.5973,1024.67,11111222 
TABS,ioos:station:wmo:42047:1,2009-11-06T06:00:00Z,27.8966,-93.5973,1024.26,11111222 
TABS,ioos:station:wmo:42047:1,2009-11-06T06:30:00Z,27.8966,-93.5973,1023.96,11111222 
TABS,ioos:station:wmo:42047:1,2009-11-06T07:00:00Z,27.8966,-93.5973,1023.87,11111222 
TABS,ioos:station:wmo:42047:1,2009-11-06T07:30:00Z,27.8966,-93.5973,1023.62,11111222 
TABS,ioos:station:wmo:42047:1,2009-11-06T08:00:00Z,27.8966,-93.5973,1023.34,11111222 
TABS,ioos:station:wmo:42047:1,2009-11-06T08:30:00Z,27.8966,-93.5973,1023.06,11111222 
TABS,ioos:station:wmo:42047:1,2009-11-06T09:00:00Z,27.8966,-93.5973,1022.94,11111222 
TABS,ioos:station:wmo:42047:1,2009-11-06T09:30:00Z,27.8966,-93.5973,1022.49,11111222 
TABS,ioos:station:wmo:42047:1,2009-11-06T10:00:00Z,27.8966,-93.5973,1022.6,11111222 
TABS,ioos:station:wmo:42047:1,2009-11-06T10:30:00Z,27.8966,-93.5973,1022.56,11111222 
TABS,ioos:station:wmo:42047:1,2009-11-06T11:00:00Z,27.8966,-93.5973,1022.56,11111222 
TABS,ioos:station:wmo:42047:1,2009-11-06T11:30:00Z,27.8966,-93.5973,1022.52,11111222 
TABS,ioos:station:wmo:42047:1,2009-11-06T12:00:00Z,27.8966,-93.5973,1022.66,11111222 
TABS,ioos:station:wmo:42047:1,2009-11-06T12:30:00Z,27.8966,-93.5973,1022.77,11111222 
TABS,ioos:station:wmo:42047:1,2009-11-06T13:00:00Z,27.8966,-93.5973,1022.99,11111222 
TABS,ioos:station:wmo:42047:1,2009-11-06T13:30:00Z,27.8966,-93.5973,1023.11,11111222 
TABS,ioos:station:wmo:42047:1,2009-11-06T14:00:00Z,27.8966,-93.5973,1023.56,11111222 
TABS,ioos:station:wmo:42047:1,2009-11-06T14:30:00Z,27.8966,-93.5973,1023.82,11111222 
TABS,ioos:station:wmo:42047:1,2009-11-06T15:00:00Z,27.8966,-93.5973,1024.22,11111222 
TABS,ioos:station:wmo:42047:1,2009-11-06T15:30:00Z,27.8966,-93.5973,1024.17,11111222 
TABS,ioos:station:wmo:42047:1,2009-11-06T16:00:00Z,27.8966,-93.5973,1024.06,11111222 
TABS,ioos:station:wmo:42047:1,2009-11-06T16:30:00Z,27.8966,-93.5973,1023.85,11111222 
TABS,ioos:station:wmo:42047:1,2009-11-06T17:00:00Z,27.8966,-93.5973,1023.88,11111222 
TABS,ioos:station:wmo:42047:1,2009-11-06T17:30:00Z,27.8966,-93.5973,1023.52,11111222 
TABS,ioos:station:wmo:42047:1,2009-11-06T18:00:00Z,27.8966,-93.5973,1023.01,11111222 
TABS,ioos:station:wmo:42047:1,2009-11-06T18:30:00Z,27.8966,-93.5973,1022.43,11111222 